User: anonymous
Location: Roanoke
(37.2710°N, 79.9420°W)
Time: 16:05:47
(UTC-04:00)
Language:

Cosmos 1441 Rocket - Orbit

View from above orbital plane
View from above orbital plane
View from above satellite
View from above satellite

Ground track
Ground track

The orbit data is extracted from the following two-line orbital elements,

1 13819U 83010B   14241.47833279  .00001832  00000-0  10683-3 0  9275
2 13819 081.1189 270.9778 0035841 141.1569 219.2243 15.10944260719013
Epoch (UTC): 29 August 2014 11:28:47
Eccentricity: 0.0035841
inclination: 81.1189°
perigee height: 508 km
apogee height: 558 km
right ascension of ascending node: 270.9778°
argument of perigee: 141.1569°
revolutions per day: 15.10944260
mean anomaly at epoch: 219.2243°
orbit number at epoch: 71901

The dashed part of the orbit path shows where the satellite is in the earth's shadow,  

DLR